Showing default

SEAHAWK-1, 43820

Orbit data source: Space-Track

SEAHAWK-1, 43820 is an American payload satellite in SSO that was launched on Mon, 03 Dec 2018 UTC via an FALCON 9 launch vehicle from the Air Force Western Test Range (AFWTR). Payload-class satellites include a variety of spacecraft equipped with specific instruments for various scientific and technological missions. These include communications satellites like Starlink; space stations such as the ISS; scientific satellites like the Hubble; Earth observation satellites from companies like Planet Labs, Umbra, and HawkEye 360; GPS; miniature CubeSats for education and research; and military/defense satellites.

Loading next visibility...
Identifier
43820, 2018-099BQ
Orbit
SSO
Country
Flag of USUS
Related business
Manufacturer
AAC ClydeSpace
Mission
Operational Amateur Technology
Bus & Motor
CUBESAT 3U, Unknown motor
Mass
5 kg wet, 5 kg dry
Launch date (UTC)
2018-12-03 (8 years ago)
Launch vehicle
FALCON 9
Launch site
Air Force Western Test Range (AFWTR)
Object type
Payload
Rocket body
Debris
Shape & HBR
Box + 4 Pan, 1.0 m
Radar Cross Section
0.035 m², Medium (>0.1 m² and < 1m²)

Expand to show TLE details & history
Last TLE update: 3 days ago

TLE from 3 days ago
0 SEAHAWK-1
1 43820U 18099BQ  26170.69895889  .00007196  00000-0  31024-3 0  9998
2 43820  97.3950 223.1462 0006611 304.4016  55.6595 15.22840885412919
Epoch: 2026-06-19T16:46Z
TLE epoch observation values (Epoch: 2026-06-19T16:46:30.048Z)
Latitude
-0.00001°
Longitude
63.59681°
Altitude
497.808 km
Speed
7.617 km/s
True Right ascension
14h 52m 35s
True Declination
0° 00' 00"
Sunlit
Object was in full shadow at epoch
Visualization orbit readout
Latitude
Unknown
Longitude
Unknown
Altitude
Unknown
Speed
Unknown
Apparent Right ascension
Unknown
Apparent Declination
Unknown
Sunlit
N/A
Visualization observer readout
Local Sidereal Time
00:50:03
Azimuth
Unknown
Elevation
Unknown
Doppler factor
Unknown
Orbital elements
Apogee altitude
498.781 km
Perigee altitude
489.695 km
Semi-major axis
6,872.375 km
Eccentricity
0.00066
Inclination
97.395°
RAAN
223.1462°
Arg. of periapsis
304.4016°
True anomaly
55.72208°
Mean anomaly
55.6595°
Eccentric anomaly
55.69079°
Mean motion
3.80963 °/min
Orbital period
94.5 mins
BSTAR
0.00031024
Loading maneuver chart data...
Computing Atmospheric mass density...
Loading historical data...
Loading historical data...
Loading historical data...
Loading historical data...
Loading historical data...
Loading historical data...
Loading historical data...

Documentation

Showing up to 5 results
|